FW6724 Weather Reports


Display with metric or nautical units.
time (UTC)temp
F
wind
direction
speed
MPH
gust
MPH
rain 1hr
in
rain 24hr
in
rain mn
in
humidity
%
barometer
mb
20260502221533 65 109 1.0 6.0 0.00 0.00 0.00 64 1017.5
20260502220040 65 91 1.0 4.0 0.00 0.00 0.00 65 1017.6
20260502214538 65 85 2.0 8.0 0.00 0.00 0.00 65 1017.7
20260502213034 65 0 1.0 6.0 0.00 0.00 0.00 65 1017.9
20260502211536 65 111 2.0 7.0 0.00 0.00 0.00 65 1017.9
20260502210035 65 82 2.0 9.0 0.00 0.00 0.00 65 1018.0
20260502204540 65 130 2.0 7.0 0.00 0.00 0.00 65 1017.8
20260502203055 65 0 2.0 6.0 0.00 0.00 0.00 65 1017.8
20260502201542 65 117 2.0 7.0 0.00 0.00 0.00 64 1017.6
20260502200041 66 84 3.0 7.0 0.00 0.00 0.00 63 1017.5
20260502194534 66 116 3.0 8.0 0.00 0.00 0.00 63 1017.3
20260502193035 66 120 2.0 8.0 0.00 0.00 0.00 62 1017.1
20260502191541 66 84 2.0 8.0 0.00 0.00 0.00 62 1017.2
20260502190038 67 126 3.0 10.0 0.00 0.00 0.00 61 1017.2
20260502184535 67 88 5.0 11.0 0.00 0.00 0.00 61 1017.1
20260502183033 67 80 5.0 12.0 0.00 0.00 0.00 60 1017.1
20260502181538 68 92 6.0 11.0 0.00 0.00 0.00 61 1017.2
20260502163044 71 82 5.0 11.0 0.00 0.00 0.00 55 1017.7
20260502161548 71 88 6.0 10.0 0.00 0.00 0.00 54 1017.7
20260502151538 71 105 6.0 13.0 0.00 0.00 0.00 53 1018.6
20260502123059 72 61 7.0 15.0 0.00 0.00 0.00 50 1019.8
20260502121534 73 101 8.0 15.0 0.00 0.00 0.00 51 1019.7
20260502114536 72 90 7.0 14.0 0.00 0.00 0.00 53 1020.2
20260502113044 72 115 5.0 11.0 0.00 0.00 0.00 53 1020.3
20260502111541 71 79 6.0 13.0 0.00 0.00 0.00 54 1020.3
20260502110035 71 115 7.0 13.0 0.00 0.00 0.00 53 1020.5
20260502104538 71 160 7.0 14.0 0.00 0.00 0.00 53 1020.6
20260502103037 71 121 6.0 15.0 0.00 0.00 0.00 54 1020.5
20260502101540 70 131 5.0 12.0 0.00 0.00 0.00 54 1020.7
20260502071535 66 74 1.0 4.0 0.00 0.00 0.00 62 1021.1
20260502070034 66 0 0.0 0.0 0.00 0.00 0.00 63 1021.1
20260502064545 66 0 0.0 0.0 0.00 0.00 0.00 64 1021.3
20260502063037 66 0 0.0 0.0 0.00 0.00 0.00 64 1021.3
20260502061536 65 0 0.0 0.0 0.00 0.00 0.00 64 1021.2
20260502060036 65 0 0.0 0.0 0.00 0.00 0.00 64 1020.9
20260502054536 65 0 0.0 0.0 0.00 0.00 0.00 64 1020.9
20260502053037 65 0 0.0 0.0 0.00 0.00 0.00 64 1020.9
20260502051537 65 0 0.0 3.0 0.00 0.00 0.00 64 1020.8
20260502050043 65 290 1.0 3.0 0.00 0.00 0.00 64 1020.8
20260502044542 65 0 1.0 4.0 0.00 0.00 0.00 64 1020.7
20260502043038 65 0 0.0 1.0 0.00 0.00 0.00 63 1020.9
20260502041534 65 0 1.0 3.0 0.00 0.00 0.00 63 1020.7
20260502040040 65 0 0.0 1.0 0.00 0.00 0.00 63 1021.1
20260502034536 65 150 0.0 3.0 0.00 0.00 0.00 64 1021.0
20260502033037 65 0 0.0 0.0 0.00 0.00 0.00 64 1021.0
20260502031533 65 0 0.0 0.0 0.00 0.00 0.00 64 1021.1
20260502030033 65 0 0.0 0.0 0.00 0.00 0.00 64 1021.2
20260502024534 65 0 0.0 0.0 0.00 0.00 0.00 64 1021.2
20260502023037 65 0 0.0 0.0 0.00 0.00 0.00 64 1021.2
20260502021536 65 0 0.0 0.0 0.00 0.00 0.00 64 1021.1
20260502020036 65 0 0.0 0.0 0.00 0.00 0.00 64 1021.3
20260502014536 65 0 0.0 0.0 0.00 0.00 0.00 64 1021.4
20260502013032 65 0 0.0 0.0 0.00 0.00 0.00 64 1021.5
20260502011540 65 0 0.0 3.0 0.00 0.00 0.00 64 1021.6
20260502010035 65 0 0.0 3.0 0.00 0.00 0.00 64 1021.7
20260502004532 66 124 1.0 4.0 0.00 0.00 0.00 64 1021.9
20260502003034 66 0 0.0 0.0 0.00 0.00 0.00 64 1022.2
20260502001545 66 0 0.0 0.0 0.00 0.00 0.00 64 1022.6
20260502000034 66 0 0.0 5.0 0.00 0.00 0.00 64 1022.7
20260501234538 66 0 0.0 5.0 0.00 0.00 0.00 64 1022.8
20260501233037 66 0 0.0 3.0 0.00 0.00 0.00 64 1022.9
20260501231536 66 141 1.0 4.0 0.00 0.00 0.00 64 1023.0
20260501230032 66 0 0.0 3.0 0.00 0.00 0.00 64 1022.9
20260501224534 66 131 1.0 3.0 0.00 0.00 0.00 64 1022.9
20260501223037 66 139 0.0 4.0 0.00 0.00 0.00 64 1022.9